Date,TemperatureHighF,TemperatureAvgF,TemperatureLowF,DewpointHighF,DewpointAvgF,DewpointLowF,HumidityHigh,HumidityAvg,HumidityLow,PressureMaxIn,PressureMinIn,WindSpeedMaxMPH,WindSpeedAvgMPH,GustSpeedMaxMPH,PrecipitationSumIn
2013-4-1,47.4,40.1,28.5,34.8,24.3,13.8,85,56,27,30.22,29.88,11,1,11,0.00
2013-4-2,47.7,36.4,26.6,25.8,21.0,15.2,85,56,31,30.28,30.18,7,1,9,0.00
2013-4-3,50.2,39.4,27.2,25.7,22.2,15.4,90,54,26,30.31,30.15,13,2,16,0.00
2013-4-4,62.3,46.8,36.2,31.9,26.6,19.8,83,50,21,30.15,29.96,8,0,9,0.00
2013-4-5,69.1,51.6,31.0,42.8,35.7,27.7,88,58,32,30.09,29.79,14,2,17,0.00
2013-4-6,74.6,63.0,52.5,50.5,43.3,35.1,73,49,39,29.79,29.55,31,7,31,0.00
2013-4-7,76.1,58.8,38.9,56.0,47.4,37.3,96,69,35,29.78,29.56,18,1,18,0.27
2013-4-8,75.4,65.4,54.1,61.5,57.7,51.0,98,77,61,29.64,29.55,17,2,17,0.24
2013-4-9,74.2,69.6,65.6,62.1,59.6,57.4,76,70,64,29.68,29.55,14,2,14,0.00
2013-4-10,72.8,49.9,42.9,61.7,47.2,40.7,96,91,62,29.77,29.55,15,2,22,1.21
2013-4-11,42.8,38.4,35.3,40.6,31.0,27.1,93,75,57,29.71,29.64,20,7,21,0.00
2013-4-12,51.3,39.8,32.2,34.3,29.8,26.5,89,69,46,29.94,29.69,18,4,18,0.00
2013-4-13,64.2,47.9,28.1,43.6,35.9,26.8,96,66,41,30.00,29.65,10,1,14,0.00
2013-4-14,78.1,65.3,52.2,58.3,47.2,40.9,93,55,27,29.65,29.36,36,6,37,0.22
2013-4-15,58.3,50.3,44.9,55.5,43.3,37.1,96,78,58,29.89,29.58,6,0,7,0.40
2013-4-16,46.5,44.3,41.3,40.1,36.9,34.3,88,75,68,30.06,29.89,12,2,12,0.08
2013-4-17,60.5,52.3,46.5,59.3,50.4,40.1,99,93,78,29.99,29.51,11,2,11,1.10
2013-4-18,51.7,43.5,38.2,51.4,39.3,27.7,99,86,63,29.83,29.43,43,6,43,1.74
2013-4-19,52.8,41.7,32.9,32.4,25.4,17.5,89,55,27,30.01,29.81,24,7,24,0.00
2013-4-20,56.0,43.1,26.7,34.3,29.2,23.9,95,62,35,30.19,30.01,12,2,12,0.00
2013-4-21,68.8,58.2,47.4,43.6,38.0,32.4,68,49,31,30.15,30.00,25,4,25,0.00
2013-4-22,68.9,59.0,45.2,50.3,41.1,35.4,78,53,31,30.05,29.81,16,2,18,0.02
2013-4-23,54.5,39.9,35.3,49.7,37.4,33.4,95,91,77,30.07,29.84,13,1,13,0.83
2013-4-24,52.2,41.3,31.9,34.7,29.7,22.4,96,67,36,30.19,30.06,16,2,16,0.10
2013-4-25,66.6,52.0,32.8,42.2,36.2,30.2,92,58,33,30.23,30.07,8,0,8,0.00
2013-4-26,58.3,52.4,48.2,48.3,45.3,37.6,96,78,47,30.18,30.06,22,2,22,0.38
2013-4-27,53.9,49.9,47.6,50.0,48.2,46.5,97,94,85,30.13,29.90,6,0,6,0.35
2013-4-28,71.1,57.6,46.4,54.6,50.0,45.8,99,78,50,29.90,29.71,13,1,13,0.00
2013-4-29,83.8,69.7,53.3,63.5,56.3,48.2,85,64,45,29.73,29.53,20,4,20,0.00
2013-4-30,82.8,73.4,62.6,58.4,53.2,45.9,77,51,28,29.73,29.55,20,4,20,0.00